TimeCST,TemperatureF,Dew PointF,Humidity,Sea Level PressureIn,VisibilityMPH,Wind Direction,Wind SpeedMPH,Gust SpeedMPH,PrecipitationIn,Events,Conditions,WindDirDegrees,DateUTC
12:15 AM,63.7,55.4,74,29.98,10.0,North,5.8,-,N/A,,Clear,350,2013-02-13 06:15:00
12:35 AM,64.4,55.6,73,29.99,10.0,NNW,3.5,-,N/A,,Clear,340,2013-02-13 06:35:00
12:55 AM,64.4,55.6,73,29.99,10.0,Calm,Calm,-,N/A,,Clear,0,2013-02-13 06:55:00
1:15 AM,64.2,55.9,74,29.98,10.0,North,3.5,-,N/A,,Clear,360,2013-02-13 07:15:00
1:35 AM,64.4,56.1,74,29.99,10.0,NNW,4.6,-,N/A,,Clear,340,2013-02-13 07:35:00
1:55 AM,64.4,56.1,74,30.00,10.0,NW,6.9,-,N/A,,Clear,320,2013-02-13 07:55:00
2:15 AM,65.5,54.5,68,30.00,10.0,NNW,8.1,-,N/A,,Clear,340,2013-02-13 08:15:00
2:35 AM,66.2,51.3,59,30.00,10.0,NNW,10.4,17.3,N/A,,Clear,340,2013-02-13 08:35:00
2:55 AM,65.5,52.2,62,30.00,10.0,NNW,10.4,-,N/A,,Clear,340,2013-02-13 08:55:00
3:15 AM,64.9,53.2,66,30.00,10.0,North,6.9,-,N/A,,Scattered Clouds,350,2013-02-13 09:15:00
3:35 AM,64.6,54.0,68,30.02,10.0,NNW,9.2,-,N/A,,Scattered Clouds,340,2013-02-13 09:35:00
3:55 AM,64.6,45.1,49,30.02,10.0,North,10.4,-,N/A,,Scattered Clouds,360,2013-02-13 09:55:00
4:15 AM,64.0,41.4,43,30.03,10.0,North,13.8,19.6,N/A,,Scattered Clouds,360,2013-02-13 10:15:00
4:35 AM,63.5,39.7,42,30.03,10.0,North,9.2,-,N/A,,Mostly Cloudy,360,2013-02-13 10:35:00
4:55 AM,62.6,40.8,45,30.03,10.0,North,10.4,-,N/A,,Scattered Clouds,360,2013-02-13 10:55:00
5:15 AM,62.6,41.9,47,30.04,10.0,North,9.2,16.1,N/A,,Mostly Cloudy,10,2013-02-13 11:15:00
5:35 AM,62.1,42.8,49,30.05,10.0,North,9.2,-,N/A,,Mostly Cloudy,10,2013-02-13 11:35:00
5:55 AM,61.9,43.3,51,30.06,10.0,North,10.4,18.4,N/A,,Overcast,360,2013-02-13 11:55:00
6:15 AM,61.5,42.8,50,30.07,10.0,North,8.1,19.6,N/A,,Mostly Cloudy,360,2013-02-13 12:15:00
6:35 AM,61.0,41.7,49,30.08,10.0,North,11.5,-,N/A,,Overcast,350,2013-02-13 12:35:00
6:55 AM,60.3,39.4,46,30.08,10.0,North,11.5,17.3,N/A,,Overcast,350,2013-02-13 12:55:00
7:35 AM,59.0,38.5,47,30.10,10.0,North,11.5,-,N/A,,Overcast,360,2013-02-13 13:35:00
7:55 AM,58.1,37.0,45,30.12,10.0,NNW,10.4,-,N/A,,Mostly Cloudy,340,2013-02-13 13:55:00
8:15 AM,57.6,37.6,47,30.14,10.0,North,11.5,17.3,N/A,,Mostly Cloudy,360,2013-02-13 14:15:00
8:35 AM,57.4,37.6,48,30.14,10.0,NNW,11.5,19.6,N/A,,Mostly Cloudy,340,2013-02-13 14:35:00
8:55 AM,58.1,37.4,46,30.14,10.0,North,11.5,-,N/A,,Mostly Cloudy,350,2013-02-13 14:55:00
9:15 AM,57.9,37.2,46,30.15,10.0,North,11.5,20.7,N/A,,Overcast,350,2013-02-13 15:15:00
9:35 AM,58.1,37.0,45,30.15,10.0,North,12.7,19.6,N/A,,Overcast,350,2013-02-13 15:35:00
10:15 AM,58.1,36.9,45,30.18,10.0,North,11.5,16.1,N/A,,Overcast,360,2013-02-13 16:15:00
10:35 AM,58.3,36.9,45,30.18,10.0,North,13.8,-,N/A,,Overcast,10,2013-02-13 16:35:00
11:15 AM,59.9,36.5,42,30.17,10.0,North,9.2,-,N/A,,Overcast,360,2013-02-13 17:15:00
11:35 AM,61.5,36.3,39,30.17,10.0,NNW,9.2,-,N/A,,Overcast,330,2013-02-13 17:35:00
11:55 AM,62.6,36.7,38,30.16,10.0,North,9.2,-,N/A,,Mostly Cloudy,10,2013-02-13 17:55:00
12:15 PM,62.8,35.8,37,30.15,10.0,NE,6.9,-,N/A,,Scattered Clouds,40,2013-02-13 18:15:00
12:35 PM,64.8,34.9,33,30.14,10.0,NNE,5.8,-,N/A,,Clear,20,2013-02-13 18:35:00
12:55 PM,64.8,35.6,34,30.13,10.0,North,6.9,-,N/A,,Clear,360,2013-02-13 18:55:00
1:15 PM,65.7,34.7,32,30.12,10.0,North,3.5,-,N/A,,Clear,10,2013-02-13 19:15:00
1:35 PM,66.2,35.4,32,30.10,10.0,NNE,5.8,-,N/A,,Clear,30,2013-02-13 19:35:00
1:55 PM,66.7,34.3,30,30.09,10.0,NE,3.5,-,N/A,,Clear,40,2013-02-13 19:55:00
2:15 PM,68.0,34.3,29,30.07,10.0,North,6.9,-,N/A,,Clear,360,2013-02-13 20:15:00
2:35 PM,67.8,34.2,29,30.06,10.0,North,9.2,-,N/A,,Clear,350,2013-02-13 20:35:00
2:55 PM,68.7,33.3,27,30.05,10.0,North,5.8,-,N/A,,Clear,350,2013-02-13 20:55:00
3:15 PM,69.3,33.3,26,30.04,10.0,NE,9.2,-,N/A,,Clear,40,2013-02-13 21:15:00
3:35 PM,70.0,32.9,25,30.03,10.0,NE,8.1,-,N/A,,Clear,50,2013-02-13 21:35:00
3:55 PM,70.0,32.4,25,30.03,10.0,NW,8.1,-,N/A,,Clear,320,2013-02-13 21:55:00
4:15 PM,69.6,31.6,24,30.02,10.0,NNE,4.6,-,N/A,,Clear,20,2013-02-13 22:15:00
4:35 PM,69.8,32.2,25,30.03,10.0,North,5.8,-,N/A,,Clear,10,2013-02-13 22:35:00
4:55 PM,69.8,31.8,25,30.03,10.0,NNE,5.8,-,N/A,,Clear,30,2013-02-13 22:55:00
5:15 PM,69.8,32.2,25,30.02,10.0,NNE,6.9,-,N/A,,Clear,20,2013-02-13 23:15:00
5:35 PM,69.1,31.5,25,30.02,10.0,NE,8.1,-,N/A,,Clear,40,2013-02-13 23:35:00
5:55 PM,68.5,30.7,25,30.02,10.0,NE,6.9,-,N/A,,Clear,40,2013-02-13 23:55:00
6:15 PM,67.3,32.0,27,30.02,10.0,NNE,6.9,-,N/A,,Clear,20,2013-02-14 00:15:00
6:35 PM,65.5,33.1,30,30.03,10.0,NE,4.6,-,N/A,,Clear,50,2013-02-14 00:35:00
7:15 PM,62.1,34.2,35,30.04,10.0,ENE,3.5,-,N/A,,Clear,60,2013-02-14 01:15:00
7:35 PM,61.2,33.8,36,30.05,10.0,ENE,4.6,-,N/A,,Clear,60,2013-02-14 01:35:00
7:55 PM,60.6,34.7,38,30.05,10.0,NE,5.8,-,N/A,,Clear,50,2013-02-14 01:55:00
8:15 PM,58.8,35.8,42,30.06,10.0,East,5.8,-,N/A,,Clear,80,2013-02-14 02:15:00
8:35 PM,57.6,40.3,53,30.07,10.0,East,4.6,-,N/A,,Clear,100,2013-02-14 02:35:00
8:55 PM,57.2,41.9,57,30.07,10.0,East,3.5,-,N/A,,Clear,90,2013-02-14 02:55:00
9:15 PM,57.2,43.0,59,30.08,10.0,NE,3.5,-,N/A,,Clear,50,2013-02-14 03:15:00
9:35 PM,56.3,43.2,61,30.09,10.0,Calm,Calm,-,N/A,,Clear,0,2013-02-14 03:35:00
9:55 PM,56.3,43.7,63,30.09,10.0,NE,3.5,-,N/A,,Clear,40,2013-02-14 03:55:00
10:15 PM,55.6,43.7,64,30.09,10.0,Calm,Calm,-,N/A,,Clear,0,2013-02-14 04:15:00
10:35 PM,55.4,43.9,65,30.11,10.0,Calm,Calm,-,N/A,,Clear,0,2013-02-14 04:35:00
10:55 PM,53.6,43.0,67,30.11,10.0,Calm,Calm,-,N/A,,Clear,0,2013-02-14 04:55:00
11:15 PM,52.7,42.8,69,30.11,10.0,Calm,Calm,-,N/A,,Clear,0,2013-02-14 05:15:00
11:35 PM,52.3,43.2,71,30.11,10.0,Calm,Calm,-,N/A,,Clear,0,2013-02-14 05:35:00